Theta_e
304 307 308 308 308 310 311 311 310 312 312 313 314 313 312 312 313 313 313 313 313 313 314 315 317 320 324 326 328 330 331 333 335 335 332 325 327 328 325 324 324 329 329
304 304 305 306 306 306 306 307 307 307 308 309 310 310 310 311 311 311 312 312 312 312 312 313 313 314 314 314 317 323 327 330 332 334 333 331 328 328 327 326 324 326 327
301 302 302 302 303 304 304 304 304 305 306 306 306 307 308 308 308 308 309 310 311 312 312 313 313 314 315 315 315 315 317 323 330 331 331 330 329 329 328 325 324 327 327
301 301 301 302 302 302 302 303 304 305 306 306 306 306 306 306 305 306 307 308 309 310 311 312 312 314 315 316 316 316 315 315 320 328 332 329 330 330 331 329 328 328 327
303 303 303 303 303 303 303 303 303 302 304 305 307 307 306 305 304 303 306 307 308 309 310 311 312 313 315 316 317 317 317 316 315 317 326 329 330 328 329 329 330 329 328
300 301 301 302 303 304 305 305 304 304 303 304 307 307 304 305 304 305 305 307 307 308 309 310 311 312 312 314 315 315 314 315 316 316 316 323 327 328 326 327 328 328 329
300 299 299 299 299 300 301 302 304 304 304 303 303 302 304 304 304 302 305 305 305 306 307 308 310 311 311 311 312 314 314 314 313 314 317 317 319 324 324 324 326 328 329
297 298 298 298 298 298 300 299 299 300 301 302 302 303 299 301 302 303 302 301 301 302 303 305 306 308 309 309 311 311 312 313 314 313 315 316 318 318 321 323 325 327 326
298 297 297 296 296 297 298 298 298 299 298 299 298 300 301 299 300 301 299 299 298 300 300 301 302 303 304 305 307 309 311 312 314 315 315 315 317 319 319 324 321 324 326
296 295 294 294 294 294 295 296 296 296 296 294 295 294 296 296 297 297 297 297 297 298 299 299 300 301 302 303 304 306 307 309 312 315 316 317 318 319 319 325 323 322 323
296 295 293 293 292 293 294 295 294 294 294 295 295 295 295 297 296 296 296 296 296 297 298 298 298 298 300 302 304 306 306 307 311 313 315 316 317 318 319 320 320 321 322
295 294 292 291 290 292 293 293 293 293 293 293 294 294 294 294 294 295 294 295 296 295 295 295 294 296 297 298 300 302 303 306 309 311 313 314 316 319 319 321 320 321 322
293 292 291 290 289 289 289 292 292 292 292 293 293 294 293 294 294 294 294 294 294 294 294 294 293 292 294 295 296 298 301 302 304 306 308 311 314 317 319 320 322 321 321
292 291 290 289 288 288 289 291 291 291 292 292 292 292 292 292 293 293 293 294 294 294 293 293 293 292 293 293 295 295 297 299 301 302 304 305 309 312 316 319 320 321 321
291 290 289 288 288 288 289 290 290 290 290 290 289 289 289 289 290 290 290 291 292 293 293 294 294 293 292 292 293 294 293 295 297 299 300 301 302 304 307 312 317 318 321
290 289 288 288 288 287 288 290 290 290 290 290 290 289 288 287 287 286 286 287 287 288 287 288 290 292 290 290 293 293 294 294 295 296 297 299 302 303 304 305 306 311 314
290 289 288 288 288 287 288 289 289 290 288 286 285 285 285 285 286 286 286 286 286 285 285 285 285 286 287 288 290 292 292 292 293 293 294 296 297 299 301 302 302 302 305
289 288 288 287 288 288 289 289 288 287 286 285 285 284 284 284 284 284 284 284 284 284 284 284 284 284 284 285 285 288 289 290 291 292 292 292 293 295 296 298 300 300 302
289 288 287 288 288 288 288 288 287 285 285 284 283 283 283 282 282 283 282 282 282 282 282 282 282 282 283 283 284 285 285 286 287 288 289 290 290 292 294 296 297 296 297
288 288 288 288 288 288 288 287 286 284 284 283 282 282 282 281 281 282 282 281 281 281 281 281 281 281 280 281 281 282 282 283 283 284 286 288 288 290 291 292 292 293 293
288 287 287 287 287 286 286 285 284 283 282 282 282 281 281 280 280 281 281 281 280 280 280 280 280 280 280 279 280 280 280 280 281 281 282 282 285 287 289 289 289 289 291
287 287 287 287 287 286 284 284 283 282 282 282 281 281 280 280 280 280 280 280 280 280 280 279 279 279 279 279 279 279 279 279 279 280 280 280 281 282 284 287 287 288 291
287 287 287 287 286 285 284 283 282 282 282 281 281 280 280 279 279 280 279 278 278 278 277 277 277 276 277 277 277 277 278 278 278 278 278 279 280 280 281 281 281 285 287
286 286 286 286 285 284 282 282 282 282 281 280 280 279 279 279 278 278 277 276 276 276 275 274 274 274 274 274 275 275 276 277 277 278 278 278 279 279 278 279 279 280 280
285 285 285 284 284 282 282 282 281 281 280 279 279 279 278 278 277 276 276 275 275 275 275 274 274 274 273 273 274 275 275 276 276 277 278 278 278 278 278 277 277 277 278
284 284 283 282 282 281 281 281 280 280 279 279 278 278 278 277 276 276 275 275 274 273 273 273 273 273 272 272 273 274 274 274 275 276 275 274 274 273 273 274 275 275 275
Wind_Speed
13 13 14 11 9 7 6 5 5 3 3 8 10 9 8 8 10 12 13 15 18 19 21 23 24 26 26 25 24 24 25 26 32 34 40 51 46 41 58 41 45 33 30
13 13 13 12 13 12 12 11 11 9 9 7 3 6 8 8 10 9 10 12 13 16 18 20 21 23 25 25 26 27 27 25 21 27 26 14 43 55 56 50 58 44 37
11 11 13 16 14 13 13 13 13 13 13 13 12 7 3 5 9 12 11 12 12 14 15 18 20 20 22 23 23 26 29 29 22 25 23 12 18 28 46 47 56 53 53
9 11 12 14 17 18 17 14 13 13 12 12 13 15 18 12 16 15 13 12 13 14 14 16 18 20 20 20 21 22 26 28 30 27 29 32 24 15 18 31 45 49 52
11 13 14 15 15 17 20 19 19 19 16 15 16 15 21 21 19 17 16 14 13 14 15 16 16 17 17 18 19 19 20 24 29 31 32 28 33 35 34 21 29 35 41
6 8 9 9 10 8 8 16 20 18 18 16 13 17 17 22 21 18 18 18 18 17 16 14 15 16 15 15 16 17 19 20 22 28 31 36 26 31 38 39 29 33 37
3 6 8 9 10 12 12 9 10 17 20 19 16 8 11 17 21 22 22 21 20 19 18 17 15 15 16 16 17 17 18 19 23 25 27 35 43 30 32 35 34 30 29
3 7 11 13 15 16 16 16 12 8 9 10 13 16 16 16 18 20 20 20 21 21 20 19 19 17 17 17 18 18 19 20 23 25 27 28 31 40 40 42 33 35 33
2 5 8 10 12 13 15 15 15 15 15 12 12 12 13 14 14 14 16 17 18 19 20 20 18 19 19 18 17 18 18 23 23 24 27 29 28 28 40 40 43 39 33
2 5 8 10 11 13 12 12 14 14 13 14 14 13 13 14 14 14 13 14 16 17 17 18 19 19 18 18 18 16 17 20 23 23 23 26 26 26 32 36 38 40 43
3 5 8 10 10 10 11 12 13 13 13 12 12 12 13 14 14 15 15 15 15 15 16 17 17 18 18 17 14 16 17 17 17 19 20 21 23 24 26 35 39 42 39
3 3 7 8 9 10 10 11 12 12 13 12 13 15 16 18 19 20 19 18 17 16 16 17 18 19 20 20 17 15 14 14 12 12 15 16 21 21 25 31 34 37 36
3 3 4 6 8 9 9 10 10 11 12 13 15 16 19 21 23 23 23 22 21 20 21 24 27 29 26 23 19 17 17 14 13 11 10 12 12 18 23 27 29 34 37
4 2 4 6 6 8 9 10 10 10 12 13 15 17 19 20 21 21 21 22 23 24 26 29 31 31 31 28 25 23 21 19 18 15 12 13 13 13 16 25 30 31 35
6 5 4 5 6 8 10 10 10 11 12 13 15 18 18 17 19 20 21 21 20 24 25 26 27 30 32 32 32 30 29 28 25 23 20 19 17 14 16 19 23 28 31
9 7 6 5 6 7 9 11 11 11 12 14 15 15 15 15 18 18 20 20 21 23 25 27 27 29 31 30 30 32 34 35 35 34 30 27 25 20 16 14 15 21 29
12 10 7 6 6 5 7 11 12 12 13 13 14 15 15 17 18 18 18 19 21 23 25 27 27 29 29 29 29 30 32 34 36 38 40 39 36 30 26 20 15 11 15
14 11 9 7 7 5 6 7 9 10 11 12 14 15 15 16 16 16 18 20 21 24 25 25 28 29 31 30 31 30 32 33 35 37 38 40 40 39 33 25 19 16 14
16 14 10 9 7 4 4 4 5 8 10 13 15 16 16 16 16 17 19 21 22 24 26 27 26 29 30 31 32 32 33 34 35 35 36 36 36 36 36 32 29 24 20
16 14 12 9 6 5 4 4 6 8 11 13 14 15 15 16 17 17 19 23 23 25 25 27 29 29 32 32 33 34 34 35 35 35 35 35 34 32 32 34 34 32 31
17 15 12 9 7 7 5 5 8 10 11 10 11 13 15 17 18 19 21 22 23 24 26 28 29 31 33 34 33 33 35 36 35 36 36 34 31 30 30 30 32 31 30
18 15 12 10 9 7 5 7 8 10 8 8 10 12 15 17 18 19 21 23 24 26 27 28 30 32 33 34 34 34 34 33 33 33 31 30 29 29 29 29 30 29 30
18 15 13 11 9 6 6 7 8 8 7 7 9 12 14 16 18 20 21 22 23 26 27 26 30 32 33 32 31 31 31 31 31 29 28 26 27 28 30 32 32 33 35
17 15 14 12 10 9 8 7 8 6 5 6 8 10 12 15 18 18 19 19 20 20 21 24 23 25 31 34 35 36 35 34 32 30 30 30 31 32 33 33 35 36 36
18 16 14 14 13 11 9 8 6 5 5 6 8 9 11 14 15 17 16 16 18 20 20 20 22 25 29 30 31 34 35 33 31 29 29 32 34 34 36 38 37 36 36
19 18 16 15 14 12 10 9 7 5 5 5 7 9 10 11 13 13 15 16 17 16 18 19 21 20 23 27 31 31 30 30 31 32 37 39 40 41 41 39 39 38 36
Wind_Direction
44 36 32 31 35 31 25 27 20 354 256 226 219 217 228 240 247 251 254 257 261 263 263 263 264 263 262 262 258 259 256 253 252 249 258 261 264 251 251 257 252 252 247
39 32 27 23 22 26 31 23 21 24 14 351 282 241 240 249 262 267 268 267 266 267 268 268 265 263 261 257 256 255 255 253 251 241 253 204 232 244 250 247 241 243 253
40 30 29 29 29 24 20 25 27 32 38 30 2 338 263 267 279 275 277 275 274 273 272 273 272 271 268 261 254 250 248 247 243 243 233 214 229 246 244 246 240 247 251
37 33 29 28 29 30 30 15 21 7 11 14 17 2 344 352 331 321 311 306 294 289 279 275 275 277 277 273 265 255 250 246 244 235 237 237 236 217 239 243 245 252 250
53 43 32 19 13 12 12 17 12 15 7 359 335 341 344 330 325 326 325 319 313 300 292 284 281 280 280 277 273 267 258 251 247 242 237 246 244 243 249 254 246 243 243
44 44 51 52 46 30 359 353 356 354 356 349 326 322 325 315 318 326 324 325 319 313 306 300 286 281 282 278 273 268 268 264 260 252 244 236 244 243 242 248 250 250 247
44 37 35 30 22 20 21 9 345 341 339 340 343 343 308 309 325 334 332 328 325 321 317 314 304 288 284 283 276 271 268 268 268 265 261 250 239 245 244 244 246 249 246
51 28 15 7 3 356 1 360 355 353 347 345 332 323 335 339 336 333 334 334 332 331 328 323 314 305 295 290 281 277 275 273 268 263 262 260 256 240 244 246 243 244 245
349 355 356 359 358 353 352 352 350 355 357 0 356 347 343 347 350 340 341 340 340 339 338 337 332 321 313 306 298 291 282 274 272 267 262 259 264 258 237 245 244 243 245
263 341 356 2 357 354 357 356 357 0 1 3 3 2 4 6 7 4 2 359 356 353 350 349 346 340 331 324 316 305 294 288 274 274 272 264 265 261 245 244 247 246 250
231 340 353 354 353 353 358 4 8 9 10 17 18 16 15 18 18 19 17 17 14 11 8 5 3 358 353 345 339 328 314 303 289 272 276 267 258 263 254 249 249 251 251
216 344 353 356 3 10 15 16 17 16 20 22 30 35 39 40 39 34 30 27 28 26 26 28 25 18 16 12 4 355 345 336 320 288 278 267 265 253 254 255 257 258 256
181 343 24 31 20 21 27 28 26 33 37 40 42 44 46 47 46 42 38 38 39 41 44 45 40 32 28 26 24 18 14 7 360 340 318 286 285 252 248 245 250 261 264
162 101 63 52 39 36 37 41 43 44 45 47 46 46 45 45 46 45 42 40 41 45 47 48 49 42 36 32 32 34 32 27 21 11 359 341 320 300 268 253 252 252 258
156 132 101 77 60 52 51 50 45 48 49 49 47 44 43 42 45 43 42 41 43 46 46 48 48 48 42 39 36 38 38 38 36 31 24 17 4 335 306 284 265 255 248
157 140 120 101 82 60 53 54 51 48 47 46 46 44 40 38 42 42 41 38 41 46 46 45 44 46 45 40 40 40 41 41 40 38 34 27 19 9 356 329 307 290 274
156 146 147 138 113 75 67 56 48 51 53 49 48 50 46 44 41 41 41 39 40 43 47 45 43 43 43 43 38 39 40 40 37 38 35 33 28 19 10 356 341 323 297
154 157 163 162 132 96 71 55 53 56 52 52 51 49 46 46 45 42 43 44 41 41 41 41 41 38 38 38 37 37 38 39 37 34 34 32 29 24 20 14 10 6 350
160 166 161 131 120 106 88 69 66 62 63 58 53 49 49 48 48 46 46 47 45 44 42 40 41 39 36 33 31 30 33 34 35 34 33 31 28 24 21 23 24 19 25
161 154 145 138 131 127 122 113 88 71 62 57 54 52 52 49 47 48 49 48 47 47 46 44 43 43 40 35 30 29 30 30 30 30 30 29 26 23 25 26 27 27 22
153 150 148 144 134 118 108 112 96 80 66 60 62 57 54 51 48 49 52 52 52 52 50 48 46 44 42 38 36 32 28 27 26 26 25 25 23 20 24 29 30 28 27
158 158 156 152 140 119 105 106 95 80 67 59 56 53 50 50 49 48 50 51 48 47 47 45 44 42 40 37 33 33 31 28 25 25 23 23 21 23 25 27 28 26 26
159 159 163 159 152 142 123 112 97 84 72 60 54 50 47 46 46 47 46 44 42 43 41 39 38 36 36 36 35 34 31 29 27 25 24 22 21 22 24 26 25 24 26
160 161 162 162 158 151 136 125 109 102 90 73 61 52 47 45 44 45 44 43 39 36 34 35 33 31 30 29 26 26 25 24 24 23 23 23 23 25 26 23 23 26 27
161 158 158 155 152 149 143 134 123 108 95 78 66 58 52 49 48 48 49 47 45 42 39 32 35 30 30 27 26 22 20 19 19 16 17 19 21 21 19 20 21 22 21
161 158 154 152 146 143 142 136 127 112 92 80 71 63 56 56 53 51 45 42 44 46 42 48 39 38 34 28 27 26 24 23 22 21 26 25 24 23 21 18 16 16 17